Regional Weather Roundup
Issued by NWS

Home | Current Version | Previous Version | Graphics & Text | Print | Product List | Glossary On
Versions: 1 2 3 4 5 6 7 8 9 10 11 12 13 14 15 16 17 18 19 20 21 22 23 24 25 26 27 28 29 30 31 32 33 34 35 36 37 38 39 40 41 42 43 44 45 46 47 48 49 50
616
ASUS43 KLMK 290302
RWRKY
KENTUCKY REGIONAL WEATHER ROUNDUP
NATIONAL WEATHER SERVICE LOUISVILLE KY
1100 PM EDT THU JUL 28 2016

NOTE "FAIR" INDICATES FEW OR NO CLOUDS BELOW 12,000 FEET
WITH NO SIGNIFICANT WEATHER AND/OR OBSTRUCTIONS TO VISIBILITY.

KYZ001>023-026-027-061>063-070>075-290400-
WESTERN AND SOUTH CENTRAL KENTUCKY

CITY           SKY/WX    TMP DP  RH WIND       PRES   REMARKS
PADUCAH        MOCLDY    76  71  85 SW3       29.91R
HENDERSON      NOT AVBL
OWENSBORO      TSTM      72  71  96 NE6       29.92F
HOPKINSVILLE   NOT AVBL
BOWLING GREEN  CLOUDY    77  73  87 SE5       29.94S
GLASGOW        NOT AVBL
$$

KYZ024-025-028>034-038-045-046-053-290400-
NORTH CENTRAL KENTUCKY

CITY           SKY/WX    TMP DP  RH WIND       PRES   REMARKS
LOUISVILLE/SDF MOCLDY    78  66  66 E5        29.91R
LOUISVILLE/LOU PTCLDY    76  67  73 CALM      29.92R
FORT KNOX      NOT AVBL
$$

KYZ035>037-039>044-047>052-055>060-089>105-290400-
NORTHEAST KENTUCKY

CITY           SKY/WX    TMP DP  RH WIND       PRES   REMARKS
LEXINGTON      PTCLDY    73  70  90 S6        29.95S
COVINGTON      PTCLDY    76  73  91 CALM      29.92R
FRANKFORT      LGT RAIN  76  71  85 VRB6      29.93S
$$

KYZ054-064>069-076>088-106>120-290400-
SOUTHEAST KENTUCKY

CITY           SKY/WX    TMP DP  RH WIND       PRES   REMARKS
JACKSON        FOG       70  68  93 CALM      29.98R VSB 3/4
LONDON         CLEAR     71  68  90 CALM      29.98S
SOMERSET       PTCLDY    68  68 100 CALM      29.98S FOG
MIDDLESBORO    MOCLDY    71  71 100 CALM      29.99S
MONTICELLO     CLEAR    N/A N/A N/A VRB7      29.99S HAZE
$$





USA.gov is the U.S. government's official web portal to all federal, state and local government web resources and services.